Schneifelwetter: Wetterstation Hallschlag, 537 m . NN
Wetterdaten: Sonntag, 14.03.2010
Datum Zeit Temp. A. Feuchte A. Luftdruck Regen Wind Richtung Richtung Sonnenschein Helligkeit T Regen Taupunkt Windchill
14.03.2010 00:01 0,1 C 90 % 1023 hPa 0,0 l/m 25,2 km/h (4 Bft) W22.5 260 0 min 0 lux 0,00 min -1,3 C -11,7 C
14.03.2010 00:16 0,1 C 90 % 1023 hPa 0,0 l/m 17,6 km/h (3 Bft) W22.5 260 0 min 0 lux 0,00 min -1,3 C -8,3 C
14.03.2010 00:31 0,1 C 90 % 1023 hPa 0,0 l/m 25,4 km/h (4 Bft) W22.5 265 0 min 0 lux 0,00 min -1,3 C -11,7 C
14.03.2010 00:46 0,1 C 90 % 1022 hPa 0,0 l/m 17,9 km/h (3 Bft) W22.5 260 0 min 0 lux 0,00 min -1,3 C -8,5 C
14.03.2010 01:01 0,0 C 90 % 1022 hPa 0,0 l/m 19,0 km/h (3 Bft) W-SW22.5 250 0 min 0 lux 0,00 min -1,4 C -9,2 C
14.03.2010 01:16 0,0 C 90 % 1022 hPa 0,0 l/m 15,3 km/h (3 Bft) W22.5 265 0 min 0 lux 0,00 min -1,4 C -7,2 C
14.03.2010 01:31 0,0 C 91 % 1022 hPa 0,0 l/m 13,8 km/h (3 Bft) W22.5 260 0 min 0 lux 0,00 min -1,3 C -6,2 C
14.03.2010 01:46 -0,2 C 91 % 1022 hPa 0,0 l/m 16,5 km/h (3 Bft) W-SW22.5 255 0 min 0 lux 0,00 min -1,5 C -8,1 C
14.03.2010 02:01 -0,2 C 92 % 1022 hPa 0,0 l/m 16,5 km/h (3 Bft) W22.5 260 0 min 0 lux 0,00 min -1,3 C -8,1 C
14.03.2010 02:16 0,0 C 92 % 1022 hPa 0,0 l/m 20,8 km/h (4 Bft) W22.5 265 0 min 0 lux 0,00 min -1,1 C -10,0 C
14.03.2010 02:31 -0,2 C 92 % 1022 hPa 0,0 l/m 23,0 km/h (4 Bft) W22.5 260 0 min 0 lux 0,00 min -1,3 C -11,2 C
14.03.2010 02:46 -0,2 C 92 % 1022 hPa 0,0 l/m 17,9 km/h (3 Bft) W-SW22.5 250 0 min 0 lux 0,00 min -1,3 C -8,9 C
14.03.2010 03:01 -0,2 C 92 % 1022 hPa 0,0 l/m 18,3 km/h (3 Bft) W 265 0 min 0 lux 0,00 min -1,3 C -9,1 C
14.03.2010 03:16 -0,2 C 92 % 1022 hPa 0,0 l/m 17,3 km/h (3 Bft) W22.5 270 0 min 0 lux 0,00 min -1,3 C -8,5 C
14.03.2010 03:31 -0,2 C 93 % 1022 hPa 0,0 l/m 25,3 km/h (4 Bft) W22.5 260 0 min 0 lux 0,00 min -1,2 C -12,1 C
14.03.2010 03:46 -0,2 C 93 % 1021 hPa 0,0 l/m 23,7 km/h (4 Bft) W22.5 265 0 min 0 lux 0,00 min -1,2 C -11,5 C
14.03.2010 04:01 0,0 C 93 % 1021 hPa 0,0 l/m 20,0 km/h (4 Bft) W22.5 260 0 min 0 lux 0,00 min -1,0 C -9,6 C
14.03.2010 04:16 0,0 C 93 % 1021 hPa 0,0 l/m 25,1 km/h (4 Bft) W22.5 265 0 min 0 lux 0,00 min -1,0 C -11,8 C
14.03.2010 04:31 0,0 C 93 % 1021 hPa 0,0 l/m 19,1 km/h (3 Bft) W22.5 260 0 min 0 lux 0,00 min -1,0 C -9,2 C
14.03.2010 04:46 0,0 C 93 % 1021 hPa 0,0 l/m 19,9 km/h (4 Bft) W22.5 260 0 min 0 lux 0,00 min -1,0 C -9,6 C
14.03.2010 05:01 0,0 C 93 % 1021 hPa 0,0 l/m 19,3 km/h (3 Bft) W22.5 260 0 min 0 lux 0,00 min -1,0 C -9,3 C
14.03.2010 05:16 0,0 C 94 % 1021 hPa 0,0 l/m 15,6 km/h (3 Bft) W22.5 260 0 min 0 lux 0,00 min -0,8 C -7,3 C
14.03.2010 05:31 0,0 C 94 % 1021 hPa 0,0 l/m 16,8 km/h (3 Bft) W22.5 265 0 min 0 lux 0,00 min -0,8 C -8,0 C
14.03.2010 05:46 0,1 C 94 % 1021 hPa 0,0 l/m 16,6 km/h (3 Bft) W22.5 260 0 min 0 lux 0,00 min -0,7 C -7,8 C
14.03.2010 06:01 0,1 C 94 % 1021 hPa 0,0 l/m 18,0 km/h (3 Bft) W22.5 265 0 min 0 lux 0,00 min -0,7 C -8,5 C
14.03.2010 06:16 0,1 C 94 % 1021 hPa 0,0 l/m 15,8 km/h (3 Bft) W22.5 265 0 min 0 lux 0,00 min -0,7 C -7,3 C
14.03.2010 06:31 0,2 C 94 % 1021 hPa 0,0 l/m 16,3 km/h (3 Bft) W22.5 265 0 min 0 lux 0,00 min -0,6 C -7,5 C
14.03.2010 06:46 0,2 C 94 % 1021 hPa 0,0 l/m 14,9 km/h (3 Bft) W-SW22.5 245 0 min 82 lux 0,00 min -0,6 C -6,7 C
14.03.2010 07:01 0,2 C 94 % 1021 hPa 0,0 l/m 17,5 km/h (3 Bft) W22.5 260 0 min 370 lux 0,00 min -0,6 C -8,1 C
14.03.2010 07:16 0,2 C 94 % 1021 hPa 0,0 l/m 13,8 km/h (3 Bft) W22.5 265 0 min 923 lux 0,00 min -0,6 C -6,0 C
14.03.2010 07:31 0,3 C 93 % 1021 hPa 0,0 l/m 16,9 km/h (3 Bft) W22.5 270 0 min 1,59 klux 0,00 min -0,7 C -7,7 C
14.03.2010 07:46 0,3 C 93 % 1021 hPa 0,0 l/m 10,8 km/h (2 Bft) W-SW22.5 250 0 min 2,02 klux 0,00 min -0,7 C -3,8 C
14.03.2010 08:01 0,4 C 93 % 1021 hPa 0,0 l/m 18,3 km/h (3 Bft) W-SW22.5 255 0 min 2,85 klux 0,00 min -0,6 C -8,3 C
14.03.2010 08:16 0,5 C 93 % 1021 hPa 0,0 l/m 23,4 km/h (4 Bft) W-SW22.5 255 0 min 7,59 klux 0,00 min -0,5 C -10,4 C
14.03.2010 08:31 0,8 C 93 % 1021 hPa 0,0 l/m 24,8 km/h (4 Bft) W-SW22.5 250 0 min 8,28 klux 0,00 min -0,2 C -10,6 C
14.03.2010 08:46 0,9 C 93 % 1021 hPa 0,0 l/m 22,6 km/h (4 Bft) W-SW22.5 250 0 min 8,34 klux 0,00 min -0,1 C -9,6 C
14.03.2010 09:01 1,2 C 93 % 1021 hPa 0,0 l/m 25,6 km/h (4 Bft) W-SW22.5 250 0 min 10,4 klux 0,00 min 0,2 C -10,3 C
14.03.2010 09:16 1,2 C 92 % 1021 hPa 0,0 l/m 24,7 km/h (4 Bft) W67.5 260 0 min 12,0 klux 0,00 min 0,0 C -10,0 C
14.03.2010 09:30 1,6 C 93 % 1021 hPa 0,0 l/m 26,0 km/h (4 Bft) W-SW22.5 250 0 min 13,2 klux 0,00 min 0,6 C -9,9 C
14.03.2010 09:45 1,9 C 92 % 1021 hPa 0,0 l/m 26,9 km/h (4 Bft) W22.5 260 0 min 18,5 klux 0,00 min 0,7 C -9,8 C
14.03.2010 10:00 2,3 C 91 % 1021 hPa 0,0 l/m 25,6 km/h (4 Bft) W22.5 260 0 min 21,8 klux 0,00 min 1,0 C -8,8 C
14.03.2010 10:15 2,6 C 89 % 1021 hPa 0,0 l/m 32,6 km/h (5 Bft) W-SW22.5 250 0 min 22,5 klux 0,00 min 1,0 C -10,4 C
14.03.2010 10:30 2,9 C 88 % 1021 hPa 0,0 l/m 29,0 km/h (5 Bft) W-SW45 255 0 min 24,3 klux 0,00 min 1,1 C -9,0 C
14.03.2010 10:45 3,2 C 86 % 1021 hPa 0,0 l/m 31,5 km/h (5 Bft) W-SW45 255 0 min 25,3 klux 0,00 min 1,1 C -9,3 C
14.03.2010 11:00 3,1 C 86 % 1021 hPa 0,0 l/m 27,0 km/h (4 Bft) W45 260 0 min 23,2 klux 0,00 min 1,0 C -8,2 C
14.03.2010 11:15 3,0 C 87 % 1021 hPa 0,0 l/m 26,1 km/h (4 Bft) W45 260 0 min 14,7 klux 0,00 min 1,1 C -8,0 C
14.03.2010 11:30 2,9 C 87 % 1021 hPa 0,0 l/m 23,6 km/h (4 Bft) W45 260 0 min 13,4 klux 0,00 min 1,0 C -7,3 C
14.03.2010 11:45 2,7 C 88 % 1021 hPa 0,0 l/m 25,3 km/h (4 Bft) W-SW22.5 255 0 min 12,3 klux 0,00 min 0,9 C -8,2 C
14.03.2010 12:01 2,7 C 88 % 1021 hPa 0,0 l/m 24,6 km/h (4 Bft) W-SW22.5 255 0 min 12,4 klux 0,00 min 0,9 C -7,9 C
14.03.2010 12:16 2,6 C 89 % 1021 hPa 0,0 l/m 22,6 km/h (4 Bft) W-SW22.5 255 0 min 16,2 klux 0,00 min 1,0 C -7,3 C
14.03.2010 12:31 2,8 C 89 % 1021 hPa 0,0 l/m 25,4 km/h (4 Bft) W-SW22.5 255 0 min 17,6 klux 0,00 min 1,2 C -8,1 C
14.03.2010 12:46 2,9 C 88 % 1021 hPa 0,0 l/m 23,4 km/h (4 Bft) W-SW22.5 250 0 min 13,3 klux 0,00 min 1,1 C -7,2 C
14.03.2010 13:00 3,0 C 88 % 1021 hPa 0,0 l/m 35,4 km/h (5 Bft) W-SW22.5 255 0 min 18,5 klux 0,00 min 1,2 C -10,5 C
14.03.2010 13:15 3,5 C 87 % 1020 hPa 0,0 l/m 29,0 km/h (5 Bft) W-SW22.5 250 0 min 25,5 klux 0,00 min 1,5 C -8,2 C
14.03.2010 13:30 3,8 C 85 % 1020 hPa 0,0 l/m 29,0 km/h (5 Bft) W-SW22.5 255 0 min 24,8 klux 0,00 min 1,5 C -7,8 C
14.03.2010 13:46 3,8 C 85 % 1020 hPa 0,0 l/m 30,0 km/h (5 Bft) W-SW45 255 0 min 17,0 klux 0,00 min 1,5 C -8,1 C
14.03.2010 14:01 3,4 C 85 % 1020 hPa 0,0 l/m 25,1 km/h (4 Bft) W-SW22.5 255 0 min 11,9 klux 0,00 min 1,1 C -7,1 C
14.03.2010 14:16 3,1 C 86 % 1020 hPa 0,0 l/m 25,4 km/h (4 Bft) W22.5 265 0 min 16,6 klux 0,00 min 1,0 C -7,7 C
14.03.2010 14:31 3,5 C 87 % 1020 hPa 0,0 l/m 24,5 km/h (4 Bft) W-SW22.5 255 0 min 24,3 klux 0,00 min 1,5 C -6,8 C
14.03.2010 14:45 3,6 C 85 % 1020 hPa 0,0 l/m 21,8 km/h (4 Bft) W22.5 260 0 min 17,7 klux 0,00 min 1,3 C -5,7 C
14.03.2010 15:00 3,7 C 85 % 1020 hPa 0,0 l/m 21,8 km/h (4 Bft) W45 265 0 min 18,6 klux 0,00 min 1,4 C -5,6 C
14.03.2010 15:15 3,9 C 84 % 1020 hPa 0,0 l/m 25,5 km/h (4 Bft) W22.5 270 0 min 16,1 klux 0,00 min 1,4 C -6,6 C
14.03.2010 15:31 3,9 C 83 % 1020 hPa 0,0 l/m 26,8 km/h (4 Bft) W22.5 270 0 min 20,8 klux 0,00 min 1,3 C -7,0 C
14.03.2010 15:46 4,0 C 83 % 1020 hPa 0,0 l/m 21,5 km/h (4 Bft) W45 265 0 min 15,9 klux 0,00 min 1,4 C -5,1 C
14.03.2010 16:01 3,9 C 82 % 1020 hPa 0,0 l/m 22,0 km/h (4 Bft) W22.5 260 0 min 18,1 klux 0,00 min 1,1 C -5,4 C
14.03.2010 16:16 3,6 C 83 % 1020 hPa 0,0 l/m 24,5 km/h (4 Bft) W-SW22.5 255 0 min 13,3 klux 0,00 min 1,0 C -6,7 C
14.03.2010 16:30 3,5 C 83 % 1019 hPa 0,0 l/m 21,8 km/h (4 Bft) W22.5 260 0 min 11,3 klux 0,00 min 0,9 C -5,8 C
14.03.2010 16:45 3,3 C 84 % 1019 hPa 0,0 l/m 22,5 km/h (4 Bft) W22.5 260 0 min 9,1 klux 0,00 min 0,9 C -6,4 C
14.03.2010 17:01 3,2 C 85 % 1019 hPa 0,0 l/m 23,6 km/h (4 Bft) W22.5 260 0 min 8,06 klux 0,00 min 0,9 C -6,9 C
14.03.2010 17:16 2,9 C 86 % 1020 hPa 0,0 l/m 20,0 km/h (4 Bft) W22.5 260 0 min 6,05 klux 0,00 min 0,8 C -5,9 C
14.03.2010 17:31 2,4 C 87 % 1020 hPa 0,0 l/m 24,5 km/h (4 Bft) W-SW45 255 0 min 5,16 klux 0,00 min 0,5 C -8,3 C
14.03.2010 17:46 1,9 C 89 % 1020 hPa 0,3 l/m 16,6 km/h (3 Bft) W22.5 260 0 min 5,35 klux 15,00 min 0,3 C -5,6 C
14.03.2010 18:01 1,8 C 91 % 1020 hPa 0,0 l/m 21,1 km/h (4 Bft) W-SW22.5 255 0 min 3,90 klux 0,00 min 0,5 C -7,8 C
14.03.2010 18:15 1,7 C 92 % 1020 hPa 0,0 l/m 24,8 km/h (4 Bft) W45 265 0 min 1,84 klux 0,00 min 0,5 C -9,3 C
14.03.2010 18:30 1,7 C 93 % 1020 hPa 0,0 l/m 21,1 km/h (4 Bft) W45 275 0 min 842 lux 0,00 min 0,7 C -7,9 C
14.03.2010 18:46 1,5 C 93 % 1020 hPa 0,3 l/m 21,8 km/h (4 Bft) W45 275 0 min 252 lux 16,00 min 0,5 C -8,5 C
14.03.2010 19:01 1,3 C 93 % 1020 hPa 0,3 l/m 19,0 km/h (3 Bft) W22.5 260 0 min 52 lux 15,00 min 0,3 C -7,5 C
14.03.2010 19:16 1,1 C 93 % 1020 hPa 0,3 l/m 18,8 km/h (3 Bft) W22.5 270 0 min 13 lux 15,00 min 0,1 C -7,7 C
14.03.2010 19:31 1,2 C 95 % 1020 hPa 0,0 l/m 19,4 km/h (3 Bft) W-NW45 285 0 min 1 lux 0,00 min 0,5 C -7,8 C
14.03.2010 19:46 1,3 C 95 % 1020 hPa 0,0 l/m 19,6 km/h (3 Bft) W45 270 0 min 0 lux 0,00 min 0,6 C -7,8 C
14.03.2010 20:00 1,4 C 95 % 1020 hPa 0,0 l/m 19,8 km/h (3 Bft) W22.5 265 0 min 0 lux 0,00 min 0,7 C -7,7 C
14.03.2010 20:15 1,4 C 95 % 1020 hPa 0,0 l/m 26,7 km/h (4 Bft) W22.5 270 0 min 0 lux 0,00 min 0,7 C -10,4 C
14.03.2010 20:30 1,4 C 94 % 1020 hPa 0,0 l/m 22,1 km/h (4 Bft) W45 270 0 min 0 lux 0,00 min 0,5 C -8,7 C
14.03.2010 20:46 1,4 C 94 % 1020 hPa 0,0 l/m 24,3 km/h (4 Bft) W-NW45 285 0 min 0 lux 0,00 min 0,5 C -9,6 C
14.03.2010 21:01 1,3 C 94 % 1020 hPa 0,0 l/m 20,1 km/h (4 Bft) W45 270 0 min 0 lux 0,00 min 0,4 C -8,0 C
14.03.2010 21:16 1,4 C 94 % 1020 hPa 0,0 l/m 25,5 km/h (4 Bft) W22.5 265 0 min 0 lux 0,00 min 0,5 C -10,0 C
14.03.2010 21:31 1,4 C 94 % 1020 hPa 0,0 l/m 30,3 km/h (5 Bft) W67.5 270 0 min 0 lux 0,00 min 0,5 C -11,5 C
14.03.2010 21:46 1,4 C 94 % 1020 hPa 0,0 l/m 22,5 km/h (4 Bft) W45 270 0 min 0 lux 0,00 min 0,5 C -8,9 C
14.03.2010 22:00 1,4 C 94 % 1020 hPa 0,0 l/m 21,5 km/h (4 Bft) W45 270 0 min 0 lux 0,00 min 0,5 C -8,5 C
14.03.2010 22:15 1,3 C 95 % 1020 hPa 0,0 l/m 20,1 km/h (4 Bft) W22.5 260 0 min 0 lux 0,00 min 0,6 C -8,0 C
14.03.2010 22:31 1,3 C 96 % 1020 hPa 0,0 l/m 21,8 km/h (4 Bft) W45 260 0 min 0 lux 0,00 min 0,7 C -8,7 C
14.03.2010 22:46 1,4 C 96 % 1021 hPa 0,0 l/m 24,6 km/h (4 Bft) W22.5 270 0 min 0 lux 0,00 min 0,8 C -9,7 C
14.03.2010 23:01 1,4 C 96 % 1021 hPa 0,0 l/m 26,1 km/h (4 Bft) W45 260 0 min 0 lux 0,00 min 0,8 C -10,2 C
14.03.2010 23:16 1,4 C 96 % 1021 hPa 0,0 l/m 29,2 km/h (5 Bft) W45 265 0 min 0 lux 0,00 min 0,8 C -11,2 C
14.03.2010 23:30 1,4 C 96 % 1021 hPa 0,0 l/m 30,1 km/h (5 Bft) W45 275 0 min 0 lux 0,00 min 0,8 C -11,5 C
14.03.2010 23:45 1,3 C 96 % 1021 hPa 0,0 l/m 18,8 km/h (3 Bft) W22.5 260 0 min 0 lux 0,00 min 0,7 C -7,4 C
_ Min-Zeit 01:46 16:01 16:30 - 07:46 - - - - - 01:46 03:31
Minimum _ -0,2 C 82 % 1019 hPa - 10,8 km/h (2 Bft) - - - - - -1,5 C -12,1 C
_ Max-Zeit 15:46 22:31 00:01 17:46 13:00 - - 00:01 13:15 18:46 13:15 07:46
Maximum _ 4,0 C 96 % 1023 hPa 0,3 l/m 35,4 km/h
W-SW (5 Bft)
- - 0 min 25,5 klux 16,00 min 1,5 C -3,8 C
Durchschnitt _ 1,5 C 91 % 1021 hPa #1,2 l/m 22,3 km/h (4 Bft) W - #0 min. 6,40 klux #1:01 h 0,2 C -8,4 C